WetterOnline ( https://www.wetteronline.at )

Wetter aktuell Lübben

Aktuelles Wetter: Cottbus (70m)

6-stündlich | Neueste Meldungen
Ortszeit Temperatur Wetter
Sa, 13.07. 20:00 23.0° C leicht bewölkt
Sa, 13.07. 14:00 19.8° C bewölkt
Sa, 13.07. 8:00 14.9° C leichter Regen
Sa, 13.07. 2:00 18.4° C bewölkt
Fr, 12.07. 20:00 19.2° C leichter Regen
Fr, 12.07. 14:00 28.3° C leicht bewölkt
Fr, 12.07. 8:00 20.4° C wolkig
Fr, 12.07. 2:00 19.0° C leicht bewölkt
Ortszeit Temperatur Wetter
So, 14.07. 0:00 16.2° C bedeckt
Sa, 13.07. 23:40 16.2° C bedeckt
Sa, 13.07. 23:30 16.1° C bedeckt
Sa, 13.07. 23:20 16.1° C bedeckt
Sa, 13.07. 23:10 16.0° C bedeckt
Sa, 13.07. 23:00 16.2° C wolkig
Sa, 13.07. 22:50 16.2° C wolkig
Sa, 13.07. 22:30 16.5° C wolkig
Sa, 13.07. 22:00 17.0° C leicht bewölkt
Sa, 13.07. 21:30 18.4° C wolkenlos
Sa, 13.07. 21:00 20.2° C fast wolkenlos
Ortszeit Relative Feuchte Sichtweite
Sa, 13.07. 20:00 47% 55 km
Sa, 13.07. 14:00 68% 45 km
Sa, 13.07. 8:00 95% 16 km
Sa, 13.07. 2:00 95% 35 km
Fr, 12.07. 20:00 95% 35 km
Fr, 12.07. 14:00 54% 55 km
Fr, 12.07. 8:00 86% 35 km
Fr, 12.07. 2:00 94% 35 km
Ortszeit Relative Feuchte Sichtweite
So, 14.07. 0:00 91% 18 km
Sa, 13.07. 23:40 90% -
Sa, 13.07. 23:30 90% 8 km
Sa, 13.07. 23:20 90% -
Sa, 13.07. 23:10 91% -
Sa, 13.07. 23:00 90% 16 km
Sa, 13.07. 22:50 90% -
Sa, 13.07. 22:30 85% 55 km
Sa, 13.07. 22:00 85% 40 km
Sa, 13.07. 21:30 78% 65 km
Sa, 13.07. 21:00 61% 65 km
Ortszeit Niederschlagsmenge Niederschlagsart
Sa, 13.07. 20:00 0.5 l/m2 in 12 Std. -
Sa, 13.07. 14:00 0.5 l/m2 in 6 Std. Regen
Sa, 13.07. 8:00 10 l/m2 in 12 Std. Regen
Sa, 13.07. 2:00 2 l/m2 in 6 Std. Regen
Fr, 12.07. 20:00 26 l/m2 in 12 Std. Regen
Fr, 12.07. 14:00 0.0 l/m2 in 6 Std. -
Fr, 12.07. 8:00 0.0 l/m2 in 12 Std. -
Fr, 12.07. 2:00 0.0 l/m2 in 6 Std. -
Ortszeit Niederschlagsmenge Niederschlagsart
So, 14.07. 0:00 0.0 l/m2 in 1 Std. -
Sa, 13.07. 23:40 keine Meldung -
Sa, 13.07. 23:30 0.0 l/m2 in 30 Min -
Sa, 13.07. 23:20 keine Meldung -
Sa, 13.07. 23:10 keine Meldung -
Sa, 13.07. 23:00 0.0 l/m2 in 1 Std. -
Sa, 13.07. 22:50 keine Meldung -
Sa, 13.07. 22:30 0.0 l/m2 in 30 Min -
Sa, 13.07. 22:00 0.0 l/m2 in 1 Std. -
Sa, 13.07. 21:30 0.0 l/m2 in 30 Min -
Sa, 13.07. 21:00 0.0 l/m2 in 1 Std. -
Ortszeit Stärke Spitze Richtung
km/h Bft. km/h Grad Sektor
Sa, 13.07. 20:00 4 1 32 290° W
Sa, 13.07. 14:00 7 2 29 260° W
Sa, 13.07. 8:00 7 2 32 270° W
Sa, 13.07. 2:00 4 1 22 140° SO
Fr, 12.07. 20:00 9 2 48 120° SO
Fr, 12.07. 14:00 14 3 36 100° O
Fr, 12.07. 8:00 11 2 18 90° O
Fr, 12.07. 2:00 4 1 14 110° O
Ortszeit Stärke Spitze Richtung
km/h Bft. km/h Grad Sektor
So, 14.07. 0:00 4 1 4 180° S
Sa, 13.07. 23:40 2 1 - 120° SO
Sa, 13.07. 23:30 4 1 4 30° NO
Sa, 13.07. 23:20 4 1 - 30° NO
Sa, 13.07. 23:10 4 1 - 20° N
Sa, 13.07. 23:00 0 0 4 - -
Sa, 13.07. 22:50 2 1 - 220° SW
Sa, 13.07. 22:30 4 1 4 50° NO
Sa, 13.07. 22:00 4 1 4 30° NO
Sa, 13.07. 21:30 0 0 4 - -
Sa, 13.07. 21:00 0 0 7 - -
Ortszeit Untergrenze Bedeckung Gattung
total tief tief mittel hoch
Sa, 13.07. 20:00 8700 m 5/8 0/8 - - -
Sa, 13.07. 14:00 720 m 7/8 7/8 - - -
Sa, 13.07. 8:00 240 m 8/8 4/8 - - -
Sa, 13.07. 2:00 1290 m 7/8 7/8 - - -
Fr, 12.07. 20:00 3600 m 7/8 7/8 - - -
Fr, 12.07. 14:00 1260 m 4/8 1/8 - - -
Fr, 12.07. 8:00 2100 m 6/8 3/8 - - -
Fr, 12.07. 2:00 9000 m 6/8 0/8 - - -
Ortszeit Bedeckungsgrad in Achtel und Wolkenuntergrenze
So, 14.07. 0:00 8(6600m)
Sa, 13.07. 23:40 8
Sa, 13.07. 23:30 8(6600m)
Sa, 13.07. 23:20 8(6600m)
Sa, 13.07. 23:10 8
Sa, 13.07. 23:00 8(7200m) 8(9000m)
Sa, 13.07. 22:50 8(7200m) 8(9000m)
Sa, 13.07. 22:30 8(7500m) 8(8100m) 8(8700m)
Sa, 13.07. 22:00 5(7800m)
Sa, 13.07. 21:30 keine Wolken
Sa, 13.07. 21:00 1(8700m)
Ortszeit Luftdruck NN (hPa) Tendenz (hPa in 3 Std.)
Sa, 13.07. 20:00 1013 + 0,2
Sa, 13.07. 14:00 1013 + 0,4
Sa, 13.07. 8:00 1011 + 2,6
Sa, 13.07. 2:00 1007 - 1,1
Fr, 12.07. 20:00 1009 - 1,7
Fr, 12.07. 14:00 1010 - 2,3
Fr, 12.07. 8:00 1015 - 0,5
Fr, 12.07. 2:00 1016 - 0,5
Ortszeit Luftdruck NN (hPa) Tendenz (hPa in 3 Std.)
So, 14.07. 0:00 1014 + 0,6
Sa, 13.07. 23:40 1013 keine Meldung
Sa, 13.07. 23:30 1013 + 0,6
Sa, 13.07. 23:20 1013 keine Meldung
Sa, 13.07. 23:10 1013 keine Meldung
Sa, 13.07. 23:00 1013 + 0,5
Sa, 13.07. 22:50 1013 keine Meldung
Sa, 13.07. 22:30 1013 + 0,6
Sa, 13.07. 22:00 1013 + 0,6
Sa, 13.07. 21:30 1013 + 0,4
Sa, 13.07. 21:00 1013 + 0,3
Ortszeit Schneehöhe (cm)
Sa, 13.07. 20:00 0
Sa, 13.07. 14:00 0
Sa, 13.07. 8:00 0
Sa, 13.07. 2:00 0
Fr, 12.07. 20:00 0
Fr, 12.07. 14:00 0
Fr, 12.07. 8:00 0
Fr, 12.07. 2:00 0
Ortszeit Schneehöhe (cm)
So, 14.07. 0:00 0
Sa, 13.07. 23:40 -
Sa, 13.07. 23:30 0
Sa, 13.07. 23:20 0
Sa, 13.07. 23:10 -
Sa, 13.07. 23:00 0
Sa, 13.07. 22:50 0
Sa, 13.07. 22:30 0
Sa, 13.07. 22:00 0
Sa, 13.07. 21:30 0
Sa, 13.07. 21:00 0
Link zu dieser Seite / Seite empfehlen

Das Wetter in ...